TimeEET,TemperatureF,Dew PointF,Humidity,Sea Level PressureIn,VisibilityMPH,Wind Direction,Wind SpeedMPH,Gust SpeedMPH,PrecipitationIn,Events,Conditions,WindDirDegrees,DateUTC
12:00 AM,68.0,57.2,68,29.95,6.2,NNW,9.2,-,N/A,,Scattered Clouds,340,2013-11-17 22:00:00
1:00 AM,66.2,57.2,73,29.95,6.2,North,8.1,-,N/A,,Scattered Clouds,350,2013-11-17 23:00:00
2:00 AM,67,57,63,29.94,6,NNW,10.4,,,,Partly Cloudy,330,2013-11-18 00:00:00
2:00 AM,68.0,57.2,68,29.92,6.2,NNW,10.4,-,N/A,,Scattered Clouds,330,2013-11-18 00:00:00
3:00 AM,68.0,57.2,68,29.92,6.2,NW,10.4,-,N/A,,Scattered Clouds,320,2013-11-18 01:00:00
4:00 AM,66.2,57.2,73,29.92,6.2,NW,5.8,-,N/A,,Scattered Clouds,320,2013-11-18 02:00:00
5:00 AM,67,58,66,29.93,6,WNW,6.9,,,,Partly Cloudy,300,2013-11-18 03:00:00
5:00 AM,68.0,59.0,73,29.92,6.2,WNW,6.9,-,N/A,,Scattered Clouds,300,2013-11-18 03:00:00
6:00 AM,57.2,57.2,100,29.92,6.2,WNW,10.4,-,N/A,,Scattered Clouds,300,2013-11-18 04:00:00
7:00 AM,68.0,59.0,73,29.92,6.2,WNW,10.4,-,N/A,,Scattered Clouds,300,2013-11-18 05:00:00
8:00 AM,68,58,64,29.94,6,NNW,9.2,,,,Mostly Cloudy,340,2013-11-18 06:00:00
8:00 AM,68.0,59.0,73,29.92,6.2,NNW,9.2,-,N/A,,Scattered Clouds,340,2013-11-18 06:00:00
9:00 AM,66.2,60.8,83,29.95,6.2,WNW,6.9,-,N/A,,Scattered Clouds,300,2013-11-18 07:00:00
10:00 AM,71.6,60.8,69,29.92,6.2,NW,8.1,-,N/A,,Scattered Clouds,310,2013-11-18 08:00:00
11:00 AM,72,60,57,29.94,6,NNW,8.1,,,,Partly Cloudy,330,2013-11-18 09:00:00
11:00 AM,71.6,60.8,69,29.92,6.2,NNW,8.1,-,N/A,,Scattered Clouds,330,2013-11-18 09:00:00
11:30 AM,71.6,60.8,69,29.92,6.2,NNW,8.1,-,N/A,,Scattered Clouds,330,2013-11-18 09:30:00
12:00 PM,73.4,59.0,61,29.92,6.2,NNW,10.4,-,N/A,,Scattered Clouds,330,2013-11-18 10:00:00
1:00 PM,71.6,59.0,64,29.92,6.2,North,11.5,-,N/A,,Scattered Clouds,350,2013-11-18 11:00:00
2:00 PM,73,57,47,29.91,6,North,12.7,,,,Partly Cloudy,350,2013-11-18 12:00:00
2:00 PM,73.4,57.2,57,29.89,6.2,North,12.7,-,N/A,,Scattered Clouds,350,2013-11-18 12:00:00
3:00 PM,71.6,59.0,64,29.92,6.2,North,10.4,-,N/A,,Scattered Clouds,350,2013-11-18 13:00:00
4:00 PM,69.8,59.0,68,29.92,6.2,NNW,10.4,-,N/A,,Scattered Clouds,340,2013-11-18 14:00:00
5:00 PM,68,60,67,29.93,6,North,8.1,,,,Partly Cloudy,0,2013-11-18 15:00:00
5:00 PM,68.0,59.0,73,29.92,6.2,North,8.1,-,N/A,,Scattered Clouds,360,2013-11-18 15:00:00
6:00 PM,66.2,59.0,78,29.92,6.2,North,6.9,-,N/A,,Partly Cloudy,360,2013-11-18 16:00:00
7:00 PM,66.2,59.0,78,29.95,6.2,North,5.8,-,N/A,,Scattered Clouds,360,2013-11-18 17:00:00
8:00 PM,67,58,65,29.96,6,NNE,5.8,,,,Scattered Clouds,20,2013-11-18 18:00:00
8:00 PM,66.2,57.2,73,29.95,6.2,NNE,5.8,-,N/A,,Partly Cloudy,20,2013-11-18 18:00:00
9:00 PM,66.2,59.0,78,29.98,6.2,NNE,3.5,-,N/A,,Partly Cloudy,30,2013-11-18 19:00:00
10:00 PM,66.2,59.0,78,29.98,6.2,North,4.6,-,N/A,,Partly Cloudy,10,2013-11-18 20:00:00
11:00 PM,65,57,68,30.00,6,North,2.3,,,,Scattered Clouds,10,2013-11-18 21:00:00
11:00 PM,64.4,57.2,77,29.98,6.2,North,2.3,-,N/A,,Partly Cloudy,10,2013-11-18 21:00:00